Terminal Aerodrome Forecast
Issued by NWS

Home | Current Version | Previous Version | Text Only | Print | Product List | Glossary On
Versions: 1 2 3 4 5 6 7 8 9 10 11 12 13 14 15 16 17 18 19 20 21 22 23 24 25 26 27 28 29 30 31 32 33 34 35 36 37 38 39 40 41 42 43 44 45 46 47 48 49 50
000
FTUS43 KMKX 221120
TAFUES
TAF
KUES 221120Z 2212/2312 VRB04KT 1SM BR OVC003
     FM221600 36005KT P6SM OVC008
     FM221800 34005KT P6SM BKN015
     FM222000 32006KT P6SM BKN025
     FM222200 35005KT P6SM SCT040
     FM230800 00000KT 1SM BR FEW080=

USA.gov is the U.S. government's official web portal to all federal, state and local government web resources and services.